Powrót do katalogu

NAHLA

AktywnyNaukaSSO
NORAD 66764·PAYLOAD·🇧🇪 Belgium

Wystrzelony Nov 28, 2025 z Vandenberg Space Force Base

Loading…

Następne Przeloty (najbliższe 24 godziny)

TLE

ŚwieżeSource: Space-Track

Epoka: Sep 14, 2026, 15:08 UTC

1 66764U 25276DC  26257.63093486  .00001973  00000-0  96777-4 0  9992
2 66764  97.4127 329.4524 0003649  45.8018 314.3516 15.19273640 43994

Śledź NAHLA w czasie rzeczywistym z AllMySat

Download on the App Store